CAPE
1133 944 1357 1397 1660 1258 1176 1045 1260 1445 1201 1229 1478 1286 607 1389 1343 1532 1710 2469 2809 2956 3052 2901 2884 2906 2699 2556 2217 2093 1767 1731 1543 1686 1731 1561 1008 990 1056 1107 1614 1866 2060 1958 1895 2256 2289 2719 2706 2588 2808 2792 2868 3646 4827 3522 3730 3670 4368 4503 3321 3692 2279
998 991 1183 1296 1394 1456 1536 1369 1522 1258 1349 1431 1115 1234 1215 1345 1259 1501 2082 3093 2992 3352 3244 3219 3117 3083 2994 2642 2265 2418 2171 1840 1714 1855 1782 1604 1475 1216 1137 1129 1075 1510 1972 1562 1860 1879 2524 2153 2678 3076 2988 2877 2596 3012 3498 3911 4045 3940 3076 3556 3809 4287 3485
872 852 1446 1388 1623 1239 1510 1388 1209 1106 1115 1345 1349 964 750 1298 1432 1848 2602 2869 3284 3550 3757 3397 3458 3112 3114 2722 2496 2639 2471 1977 1801 1816 1674 1369 1540 1096 1101 1214 1177 1162 1354 1619 1917 2031 1935 2614 2181 2424 2585 2751 2271 2554 3136 3213 3470 3558 3530 4286 3591 3136 3995
850 706 878 1103 1529 1510 1477 1208 1244 948 996 876 945 1199 1560 2046 1716 1990 2424 2872 3110 3719 3393 3345 3476 2794 3015 3042 2704 2772 2658 2276 1888 1731 1454 1042 1110 1017 934 1089 1325 974 1056 1210 1251 1501 1563 2094 2406 2419 2436 2286 2268 2161 2363 2292 2402 2837 3202 4061 3938 3121 3338
640 677 990 904 1574 1636 1739 1732 2135 2199 1677 1087 1320 1107 708 986 1801 2273 2109 1835 2434 3270 3576 3153 3410 2774 2751 2764 2420 2393 2617 2326 2038 1598 1523 1064 880 1015 863 732 1076 961 830 897 940 1154 1385 1733 1959 2341 2444 2420 2143 2143 2220 2361 2319 2420 2662 2980 3225 3059 3266
443 463 746 912 792 1056 1325 1050 1547 1770 1665 1645 1876 1753 1198 938 1652 1244 1670 2081 2642 1866 2574 2968 2593 2662 2681 2690 2184 1967 2546 2662 2329 1970 1647 1220 978 856 849 873 719 805 540 665 651 889 1409 1572 1791 1925 2023 2107 1866 1649 1720 2048 2006 2020 2268 2758 2850 2543 2161
368 458 422 667 765 736 919 1418 1470 1283 1462 1401 1512 1780 2051 1254 1222 1397 1616 1996 2062 1955 2405 2211 1877 2281 2904 2472 2258 2082 2562 2578 2610 2076 1630 1396 1186 1107 982 981 906 575 480 559 591 565 942 1610 1781 1893 1802 1677 1609 1319 1376 1708 1658 1661 1758 2435 2661 2763 2540
189 294 222 521 569 760 796 983 1139 1452 1754 1402 1510 1546 1618 1628 2109 2184 1878 1112 1161 1686 2752 2887 2690 2083 2567 2555 2222 1935 2337 2223 2189 2293 1807 1341 1128 1249 1020 1015 1014 723 471 333 594 564 565 1368 1524 1615 1651 1632 1617 1492 1226 1498 1839 1570 1530 1867 2354 2579 2280
120 116 244 439 571 758 975 1064 1102 1485 1537 1162 1503 1647 1930 1576 1770 1586 1590 1844 2104 1690 1949 1287 1298 1736 2581 2572 2500 2175 2070 1970 2167 2131 1752 1256 814 912 701 926 1010 1016 766 358 302 695 685 625 1013 1158 1584 1668 1680 1637 1516 1648 1871 2020 1708 1668 1958 2416 2314
509 373 490 730 811 814 1018 1102 1111 1269 1120 1173 1367 1419 1196 1363 2128 1944 1489 1695 2012 1969 1726 1731 1512 1825 2089 2350 2530 2270 2028 2080 1706 1769 1558 1070 827 747 471 265 574 1064 1070 675 200 195 707 646 673 832 1364 1693 1609 1692 1789 1781 1884 2182 1773 1706 1840 2073 2508
441 513 569 884 882 887 958 1026 1070 1161 1143 1124 1378 1694 1929 1864 1704 1624 1492 1779 1676 1599 1633 949 968 1907 2610 2358 2414 2206 2172 1959 1669 1569 1510 1294 934 670 412 108 57 357 704 644 214 19 228 626 715 900 1292 1444 1824 1766 1882 2122 2161 2156 1874 1672 1739 2060 2131
435 394 527 652 866 915 986 993 1033 1023 1097 1055 1049 1106 1965 1401 1485 1582 1422 1797 2071 1744 1772 2420 2452 1075 1818 1688 1980 2308 2020 1986 1689 1432 1485 1247 1046 656 528 294 12 16 366 544 380 88 3 224 533 536 1047 1473 1671 1852 1765 1998 2147 2200 2104 1608 1531 1615 1814
262 372 469 598 732 879 950 1001 987 971 949 1019 1147 1111 1029 983 1566 1254 1466 1826 1724 1475 1889 1845 1589 2151 1010 1767 1961 2006 2133 2001 1848 1542 1187 1294 1081 782 628 396 88 9 41 308 388 249 33 10 330 558 653 1158 1579 1578 1710 1792 1860 2218 2270 2137 1725 1369 1619
229 188 385 377 296 596 688 909 985 934 926 948 956 1083 1048 1047 1029 885 1424 1111 1393 935 1154 1666 1570 1633 1855 2489 1933 2237 2236 1976 1778 1744 1599 1403 1599 1176 635 476 352 142 54 155 267 199 58 8 9 333 656 820 1139 1353 1332 1573 1860 2143 2302 2396 2136 1530 1340
117 190 190 448 288 160 627 624 781 832 851 902 921 954 883 913 864 793 885 1005 1190 1415 1433 1536 1756 1100 1181 1860 2051 2791 2229 2008 1914 1656 1855 1712 2278 1748 1043 560 618 605 362 190 166 186 104 4 0 46 285 561 923 1187 952 687 1262 1695 2089 2239 2346 2055 1242
82 125 182 172 456 389 159 280 525 836 714 809 888 882 878 895 856 812 723 788 1487 1640 1800 2019 1315 1477 1317 1030 1889 1821 2381 2655 2793 2270 2422 2190 2588 2684 1948 1046 764 540 566 550 357 427 409 219 38 0 58 280 689 1016 852 468 281 1052 1140 1706 2069 2108 1314
0 17 125 115 188 360 373 579 260 336 471 509 728 803 824 872 872 835 769 703 863 1142 1300 1293 1204 1481 1122 1265 1472 1865 2294 2483 2706 2552 2983 2963 2611 2564 2888 2132 1289 1066 1543 1116 754 1109 1346 852 360 104 17 94 331 697 561 328 95 197 270 1159 1494 1822 1865
0 0 4 90 139 131 228 267 435 406 319 315 383 614 774 826 825 823 824 758 712 941 1080 1127 1598 1518 1418 1402 1334 1890 2194 2303 2577 2542 2772 3086 3072 3026 3063 2732 2177 1915 1770 1478 1124 1905 1003 923 1032 974 336 165 184 216 234 237 118 0 0 791 1242 1709 1729
0 0 0 0 50 132 223 189 242 450 435 288 292 476 634 615 747 870 890 839 806 750 1121 1524 1611 1648 2010 2046 1756 1304 1623 2381 2380 2493 2619 2876 3143 3210 3232 3328 2946 2299 1704 1200 1216 1385 1955 1992 1517 1507 1286 779 718 321 258 238 92 0 0 565 1077 1268 1372
0 0 0 0 0 43 116 113 126 254 453 485 393 305 322 393 463 675 888 918 897 858 884 1069 1090 1444 1479 1544 1764 1421 1285 1552 2517 2714 2825 2820 3127 3680 3592 2974 3300 2554 1935 1726 1897 1915 1927 1881 1949 1779 2142 1765 1420 1409 799 585 195 0 0 0 838 1064 1218
0 0 0 0 0 0 0 0 0 52 103 231 464 485 378 300 329 470 535 730 794 788 830 875 868 770 903 1138 1416 1504 1719 1539 1323 2172 2889 2786 1802 2632 3172 3562 3273 2699 2063 1621 1778 2070 2238 2123 2172 2122 2138 1978 1948 1836 1411 891 474 106 0 0 0 631 806
0 0 0 0 0 0 0 0 0 0 0 0 0 116 317 452 420 393 370 397 488 620 649 743 822 825 800 870 1014 1159 1414 1785 1618 1390 1482 2147 1588 1622 1675 2149 3286 2631 2345 2142 1836 1867 2023 2427 2206 2146 2136 2218 2197 2067 1963 1521 904 862 757 576 518 501 670
0 0 0 0 0 0 0 0 0 0 0 0 0 0 0 149 258 339 407 409 397 339 418 580 656 733 761 871 832 774 1051 1439 1916 1763 1502 1866 1806 1804 1907 1918 1729 2508 2452 1951 2040 1881 1796 1982 2020 2067 1962 2113 2272 2222 2113 1971 1663 1115 987 913 908 803 799
0 0 0 0 0 0 0 0 0 0 0 0 0 0 0 0 0 143 289 363 388 337 357 340 490 555 630 741 815 859 975 1076 1165 1780 1980 2037 1547 1584 1607 1798 2091 2072 2490 2002 2284 2260 1890 1810 1936 2122 2236 2117 2031 1848 2226 2114 1917 1552 1328 1091 929 792 1105
0 0 0 0 0 0 0 0 0 0 0 0 0 0 0 0 0 0 0 59 200 270 321 326 410 428 438 558 665 721 857 882 1108 1418 1478 1649 1725 1509 1412 1403 1412 1760 1551 1572 1828 2504 2416 2076 2089 2004 2028 1960 2016 1906 1928 2108 2030 1744 1629 1476 1271 1093 1241
0 0 0 0 0 0 0 0 0 0 0 0 0 0 0 0 0 0 0 0 0 0 71 233 335 400 385 485 378 456 532 490 890 1159 1132 1258 1324 1862 1775 1653 1928 2031 2250 2155 2132 2367 1977 2687 2462 2176 1666 1514 1627 1983 1804 1737 2101 1917 1653 1601 1509 1362 1278
0 0 0 0 0 0 0 0 0 0 0 0 0 0 0 0 0 0 0 0 0 0 0 0 42 167 360 471 520 666 612 619 585 627 853 1180 1314 1277 1297 1858 1645 1637 1843 1685 2026 1698 1663 2007 2799 2627 2568 2427 2445 2397 1926 1687 1750 2934 1619 1585 1553 1463 1344
0 0 0 0 0 0 0 0 0 0 0 0 0 0 0 0 0 0 0 0 0 0 0 0 0 0 0 250 459 643 621 684 732 750 864 1035 1042 957 862 1108 1474 1778 1581 1888 2120 1842 1822 1961 2008 2462 2504 2378 2195 2312 2272 2200 1726 2060 1855 1602 1508 1462 1394
0 0 0 0 0 0 0 0 0 0 0 0 0 0 0 0 0 0 0 0 0 0 0 0 0 0 0 0 57 414 536 656 710 872 851 1020 1040 1066 1084 990 1049 1288 1748 2119 1998 2183 2393 2095 1872 2474 2430 2453 2429 1695 1857 2181 2618 2141 2257 1535 1602 1620 1530
0 0 0 0 0 0 0 0 0 0 0 0 0 0 0 0 0 0 0 0 0 0 0 0 0 0 0 0 0 1 168 448 448 423 446 603 818 1024 1047 1197 1181 1070 1308 1485 1734 1913 2214 2097 2274 2321 2019 2217 2212 1944 1697 2165 2407 2127 1882 1821 1430 1346 1443
0 0 0 0 0 0 0 0 0 0 0 0 0 0 0 0 0 0 0 0 0 0 0 0 0 0 0 0 0 0 0 0 249 365 496 568 285 418 703 1031 1382 1616 1372 1681 1550 1559 1920 2177 2147 2229 2253 2146 2228 2149 1962 2085 2296 2248 2492 1738 1685 1452 1263
0 0 0 0 0 0 0 0 0 0 0 0 0 0 0 0 0 0 0 0 0 0 0 0 0 0 0 0 0 0 0 0 0 3 44 179 184 372 695 619 640 1501 1683 1359 1431 1493 1660 1822 1892 2103 2079 1920 2030 2192 2032 2094 2240 2186 2912 1932 1763 1792 1628
0 0 0 0 0 0 0 0 0 0 0 0 0 0 0 0 0 0 0 0 0 0 0 0 0 0 0 0 0 0 0 0 0 0 14 26 63 223 622 806 981 1104 1231 1504 1480 1394 1342 1366 1566 1747 1835 1968 2037 2083 2169 2171 2199 1990 2118 3559 2831 2139 2431
0 0 0 0 0 0 0 0 0 0 0 0 0 0 0 0 0 0 0 0 0 0 0 0 0 0 0 0 0 0 0 0 0 3 0 22 156 244 546 1402 841 551 957 1260 1149 1117 1228 905 1434 1528 1638 1829 2420 2395 2365 2218 2100 1714 2400 1824 2251 2572 2669
0 0 0 0 0 0 0 0 0 0 0 0 0 0 0 0 0 0 0 0 0 0 0 0 0 0 0 0 0 0 0 0 0 0 0 0 17 64 113 328 497 478 358 257 512 975 1569 986 894 1174 1036 1632 1787 1615 1640 1790 1892 1550 1820 2176 2102 1932 2128
0 0 0 0 0 0 0 0 0 0 1 0 0 0 0 0 0 0 0 0 0 0 0 0 0 0 0 0 0 0 0 0 0 0 0 0 0 0 28 99 28 496 313 284 188 148 0 317 408 781 813 801 941 1313 1522 1906 1800 1836 1773 1718 1882 2072 2028
1 0 0 0 0 0 0 0 0 0 0 0 0 0 0 0 0 0 0 0 0 0 1 1 4 2 0 0 0 0 0 0 0 0 0 0 0 0 6 36 33 0 0 0 0 101 97 0 0 0 0 0 236 383 110 643 926 1446 1693 1864 2007 2118 2087
2 0 0 0 0 0 0 0 0 0 0 0 0 2 3 0 0 0 0 0 0 3 4 4 7 3 0 0 0 0 0 1 2 0 0 0 0 0 8 26 46 78 146 0 0 0 0 107 35 0 0 0 0 7 90 62 4 0 0 174 747 1402 1746
Wind_Speed
27 24 19 12 4 4 8 10 11 13 11 7 8 5 3 4 6 9 9 10 9 9 10 14 16 17 15 14 11 9 8 10 11 10 9 8 8 8 8 8 7 7 6 5 4 4 3 3 2 3 4 3 4 4 3 3 2 3 2 3 4 3 3
38 35 25 18 19 9 8 12 13 14 13 11 8 4 5 7 5 8 10 11 10 9 10 13 17 18 17 16 13 9 8 9 10 11 9 10 9 8 8 8 8 7 7 6 6 5 4 2 2 2 2 3 4 4 5 4 3 3 2 4 4 3 2
33 30 22 14 14 17 13 13 14 15 13 9 7 4 6 6 7 10 13 12 11 10 10 13 16 18 18 17 14 10 9 9 10 9 8 9 8 7 8 9 8 8 6 6 8 6 5 4 3 3 1 2 3 5 4 4 3 3 2 3 2 3 3
32 28 25 19 13 17 14 12 13 13 11 10 10 10 10 10 13 14 17 14 11 11 9 13 16 18 18 17 15 12 9 9 10 10 8 8 8 7 9 9 9 7 8 7 7 8 7 6 5 3 2 1 2 4 4 3 3 2 2 3 2 2 3
32 30 28 26 22 18 18 18 16 18 16 16 15 13 10 10 14 19 14 14 10 10 10 12 15 17 19 18 17 15 11 10 12 11 10 9 9 8 8 8 8 7 9 8 8 8 7 7 5 5 4 2 3 3 3 3 2 1 2 3 4 2 1
37 35 33 31 31 24 22 19 15 15 17 23 21 18 13 11 13 12 11 13 11 8 8 10 10 16 17 18 17 16 14 13 14 13 11 10 8 8 8 8 8 8 7 8 9 8 7 6 5 5 4 4 3 3 4 3 2 1 1 2 4 3 2
39 36 33 33 34 35 30 26 28 17 16 21 19 19 19 13 13 11 12 11 9 7 7 7 9 13 17 19 18 17 15 14 15 13 12 9 8 8 9 9 9 9 9 10 10 9 8 7 6 6 5 4 5 3 3 3 2 1 1 0 1 3 4
41 38 37 36 36 35 34 39 34 23 21 26 19 7 9 16 20 19 15 10 9 7 8 7 6 10 15 17 19 18 17 16 16 15 14 10 9 7 9 9 11 11 10 9 11 10 9 9 7 6 6 5 5 4 3 5 3 1 1 1 0 1 1
43 42 39 40 40 38 38 40 40 31 18 21 21 13 13 12 17 19 18 20 19 16 13 5 2 11 14 17 20 19 19 17 17 17 14 11 10 8 8 10 11 12 11 11 13 13 11 10 9 8 7 6 7 6 5 5 5 3 1 2 1 0 1
46 45 44 43 42 40 39 39 38 38 39 31 24 26 21 17 21 26 24 23 25 24 18 12 4 10 15 15 20 22 21 19 18 17 16 14 12 9 8 10 12 14 12 12 14 13 13 11 10 10 10 8 8 8 6 6 5 4 3 2 1 1 1
46 47 47 45 45 43 42 42 41 39 38 39 35 27 21 20 21 23 21 23 24 23 20 13 10 17 14 15 19 22 22 20 19 18 17 15 15 12 11 10 nan 15 13 14 13 nan 15 14 12 12 12 10 9 9 8 7 6 5 3 3 3 3 2
49 49 48 47 46 46 45 42 40 39 37 37 38 33 25 19 14 15 20 23 25 22 27 30 20 16 15 12 16 20 20 21 20 18 17 17 16 15 14 13 nan nan 16 15 14 nan nan 15 14 13 12 12 11 10 9 9 8 7 4 3 3 4 3
51 51 50 50 49 46 46 45 44 41 38 37 37 36 38 34 20 14 19 21 26 25 22 18 16 18 19 15 14 15 19 20 20 20 20 19 18 18 17 15 nan nan nan 17 16 15 nan nan 15 15 13 13 12 11 11 11 9 9 8 5 4 4 5
54 54 54 53 53 52 50 48 47 45 42 40 38 37 37 37 35 33 27 25 23 19 19 24 23 21 23 25 19 14 17 17 19 20 22 22 22 20 19 18 16 17 nan 19 18 16 nan nan nan 16 15 14 13 12 13 13 12 11 10 9 7 6 6
56 57 57 56 55 53 53 51 50 48 46 42 42 40 37 35 36 38 36 35 28 16 13 17 16 14 15 21 21 19 17 16 20 21 23 23 25 23 21 20 19 19 19 19 18 18 17 nan nan nan 16 15 15 14 14 14 14 13 13 12 10 9 8
nan 59 58 58 57 55 54 54 52 50 49 47 45 43 40 37 35 37 39 39 30 17 17 17 18 21 19 18 20 18 16 17 18 20 22 25 24 26 24 22 21 20 19 19 18 20 20 19 nan nan nan 17 16 15 15 15 15 17 16 16 15 13 11
nan nan 60 59 58 57 55 55 54 53 52 51 50 47 43 39 37 35 38 39 37 31 27 25 24 22 21 22 19 19 18 17 18 17 21 24 25 26 26 25 24 23 23 21 21 21 22 19 17 17 nan nan 17 17 16 16 nan 21 22 20 16 15 15
nan nan nan nan 60 59 58 57 57 56 54 53 52 51 48 44 41 39 39 39 40 35 32 30 30 27 26 26 24 25 22 20 19 18 19 21 24 26 27 27 26 26 24 22 21 23 20 19 18 18 16 17 17 17 17 17 16 nan nan 24 21 18 17
nan nan nan nan nan 61 60 59 58 57 55 54 53 51 51 48 45 43 41 40 40 39 37 32 29 27 23 24 31 31 26 23 21 21 22 21 22 25 27 27 27 26 25 24 23 24 23 21 20 19 17 16 16 15 16 17 nan nan nan 27 26 22 18
nan nan nan nan nan nan 62 61 59 58 55 54 54 53 51 52 50 46 44 42 42 43 41 37 37 34 30 30 30 30 30 30 26 24 24 23 22 23 25 24 24 24 25 27 27 26 24 22 21 21 20 18 16 16 14 14 21 nan nan nan 28 26 23
nan nan nan nan nan nan nan nan nan nan 58 57 56 55 54 55 54 50 49 48 47 46 43 42 41 41 39 35 33 30 31 33 31 29 27 35 37 31 26 23 22 22 25 26 27 27 26 25 24 23 21 19 18 17 14 14 17 26 nan nan nan 28 26
nan nan nan nan nan nan nan nan nan nan nan nan nan 58 57 58 57 55 54 52 51 49 47 46 46 44 42 42 39 34 33 33 35 34 32 36 31 32 30 24 23 22 23 25 26 27 28 28 26 25 23 22 20 19 16 15 18 26 24 25 27 29 26
nan nan nan nan nan nan nan nan nan nan nan nan nan nan nan 59 59 59 57 56 54 52 52 51 50 49 47 45 41 39 38 33 31 35 37 37 35 32 31 31 29 26 24 21 23 26 27 27 28 28 25 24 23 21 19 18 21 26 26 26 26 28 24
nan nan nan nan nan nan nan nan nan nan nan nan nan nan nan nan nan 60 60 60 58 56 56 55 53 52 50 47 46 43 38 34 32 34 33 33 31 30 30 29 29 27 29 24 21 23 24 27 28 28 28 26 24 24 22 21 23 29 28 28 31 29 25
nan nan nan nan nan nan nan nan nan nan nan nan nan nan nan nan nan nan nan nan 60 60 58 57 56 54 51 49 47 42 37 33 34 35 33 29 28 28 28 27 29 33 34 28 21 19 22 23 25 26 27 26 25 26 24 23 25 31 29 31 34 30 27
nan nan nan nan nan nan nan nan nan nan nan nan nan nan nan nan nan nan nan nan nan nan nan 57 56 53 52 50 47 43 39 37 37 35 35 32 29 27 28 29 31 34 37 33 29 25 22 21 21 21 23 23 24 25 25 23 24 32 31 32 33 33 31
nan nan nan nan nan nan nan nan nan nan nan nan nan nan nan nan nan nan nan nan nan nan nan nan nan 53 53 50 47 44 41 42 45 43 40 38 34 33 32 33 33 35 36 33 29 26 21 17 19 19 20 22 24 26 25 25 25 30 35 32 33 33 32
nan nan nan nan nan nan nan nan nan nan nan nan nan nan nan nan nan nan nan nan nan nan nan nan nan nan nan 49 47 46 45 45 46 45 44 45 43 40 40 37 34 33 32 32 29 22 18 18 18 17 19 20 20 22 23 24 26 26 35 33 34 34 34
nan nan nan nan nan nan nan nan nan nan nan nan nan nan nan nan nan nan nan nan nan nan nan nan nan nan nan nan nan 46 46 45 43 42 42 43 44 43 42 40 34 31 30 28 26 23 23 21 19 18 19 20 20 19 20 22 25 26 29 35 32 33 33
nan nan nan nan nan nan nan nan nan nan nan nan nan nan nan nan nan nan nan nan nan nan nan nan nan nan nan nan nan nan 42 40 42 43 42 40 40 42 42 40 38 33 30 29 27 27 26 26 25 21 20 19 19 18 19 23 24 27 25 29 34 32 31
nan nan nan nan nan nan nan nan nan nan nan nan nan nan nan nan nan nan nan nan nan nan nan nan nan nan nan nan nan nan nan nan 42 43 39 36 37 40 41 40 38 37 34 33 30 28 25 26 28 27 25 23 21 20 20 21 23 23 28 29 33 33 32
nan nan nan nan nan nan nan nan nan nan nan nan nan nan nan nan nan nan nan nan nan nan nan nan nan nan nan nan nan nan nan nan nan nan nan 41 41 40 38 36 34 34 35 34 33 31 27 26 27 28 28 26 24 23 23 23 24 24 29 36 33 32 32
nan nan nan nan nan nan nan nan nan nan nan nan nan nan nan nan nan nan nan nan nan nan nan nan nan nan nan nan nan nan nan nan nan nan nan nan nan 41 40 38 37 34 33 34 33 32 32 29 27 28 26 27 27 27 26 26 27 30 33 42 39 36 38
nan nan nan nan nan nan nan nan nan nan nan nan nan nan nan nan nan nan nan nan nan nan nan nan nan nan nan nan nan nan nan nan nan nan nan nan 40 38 37 38 36 34 34 35 35 34 33 31 29 28 26 28 30 31 30 30 35 37 45 44 35 33 36
nan nan nan nan nan nan nan nan nan nan nan nan nan nan nan nan nan nan nan nan nan nan nan nan nan nan nan nan nan nan nan nan nan nan nan nan nan nan 39 36 34 32 32 34 35 37 38 36 32 31 30 31 34 34 32 34 41 34 33 40 42 38 33
nan nan nan nan nan nan nan nan nan nan nan nan nan nan nan nan nan nan nan nan nan nan nan nan nan nan nan nan nan nan nan nan nan nan nan nan nan nan nan nan nan 41 36 34 31 32 nan 36 32 32 34 31 30 33 34 36 35 39 41 33 36 39 38
nan nan nan nan nan nan nan nan nan nan nan nan nan nan nan nan nan nan nan nan nan nan nan nan nan nan nan nan nan nan nan nan nan nan nan nan nan nan nan nan nan nan nan nan nan 28 nan nan nan nan nan nan 30 31 35 37 33 28 29 30 30 33 35
nan nan nan nan nan nan nan nan nan nan nan nan nan nan nan nan nan nan nan nan nan nan nan nan nan nan nan nan nan nan nan nan nan nan nan nan nan nan nan nan nan nan 45 nan nan nan nan 26 nan nan nan nan nan nan nan nan nan nan nan 30 31 33 36
Wind_Direction
282 285 291 288 236 249 256 275 291 283 268 261 233 218 260 254 249 264 257 257 263 267 257 238 226 224 229 232 239 238 230 237 239 245 241 237 232 237 250 247 243 220 206 202 189 196 208 191 266 325 321 344 7 346 347 6 29 18 90 89 79 99 4
238 255 275 301 311 310 285 275 274 270 264 237 220 260 225 252 249 264 255 253 260 264 259 241 227 222 226 230 232 233 228 235 242 235 233 237 229 232 241 244 240 233 211 185 203 206 216 232 228 274 313 332 6 349 353 355 25 47 359 43 61 78 150
244 253 265 254 279 289 278 261 265 258 254 258 270 265 263 257 264 259 249 251 252 251 249 244 232 225 225 229 232 234 228 230 243 241 240 237 248 245 244 244 239 238 225 202 198 212 228 226 244 248 282 342 357 348 0 353 18 25 57 61 354 50 54
235 240 248 260 251 249 261 268 265 269 268 245 233 246 231 241 246 239 250 242 244 245 247 241 235 231 227 230 233 235 230 229 233 241 235 232 244 240 249 245 238 230 233 220 210 207 220 240 247 242 253 293 360 344 1 8 16 47 85 88 73 338 56
233 242 244 242 252 251 242 242 238 244 240 238 225 225 244 231 250 242 247 259 248 246 247 247 236 233 227 229 227 229 232 229 232 233 231 227 233 240 244 252 252 236 231 231 223 223 212 238 258 259 271 283 331 343 357 356 41 53 106 95 112 83 342
226 231 236 237 230 250 270 266 252 236 231 224 208 208 218 227 245 264 264 262 250 250 253 253 251 247 235 233 231 234 234 229 232 234 229 230 229 242 249 246 249 251 244 233 235 229 237 226 246 269 281 304 319 337 346 347 12 17 13 109 118 116 100
225 225 232 233 234 233 239 271 282 277 252 230 202 183 195 228 249 254 254 261 258 241 253 266 262 257 243 239 238 243 242 241 240 243 239 232 238 234 246 249 243 247 235 239 234 238 242 243 238 253 269 283 294 328 312 305 305 279 246 186 123 131 126
226 227 228 233 238 235 238 242 253 266 270 269 255 191 213 216 231 230 230 245 251 234 227 233 264 255 260 247 247 245 249 249 247 250 243 245 241 238 244 245 252 244 242 239 244 236 238 246 247 248 257 274 276 273 282 279 274 250 250 276 205 99 66
227 227 228 232 234 236 233 235 236 243 251 269 278 274 264 247 235 232 225 215 208 208 198 188 219 272 257 258 248 250 252 247 252 252 258 259 246 247 244 250 252 251 245 239 241 243 232 240 242 244 252 251 261 268 267 268 291 295 250 247 288 344 124
227 227 229 230 234 236 235 232 232 230 232 243 262 252 240 239 242 239 230 219 209 194 161 152 251 263 262 255 250 253 251 249 249 257 261 263 256 254 245 246 252 253 251 248 241 247 246 236 242 247 246 251 256 265 264 277 284 290 308 316 309 302 298
226 228 228 228 231 233 234 232 229 228 226 230 242 247 244 234 234 237 242 242 224 196 166 151 193 230 234 245 256 253 250 252 250 254 259 262 263 266 257 246 nan 251 250 250 247 nan 251 251 239 239 248 251 257 261 266 271 277 281 294 303 301 308 295
227 227 226 227 228 230 232 233 232 229 226 227 230 235 242 238 234 244 237 226 227 204 186 181 211 246 228 234 257 252 253 249 248 252 258 259 261 267 265 258 nan nan 255 249 251 nan nan 257 253 245 249 251 254 260 265 264 266 270 268 286 302 293 283
227 227 226 225 226 228 230 231 231 231 228 228 227 225 228 233 244 249 240 228 233 221 198 198 208 220 240 245 248 247 251 251 248 246 251 252 254 258 261 262 nan nan nan 259 254 256 nan nan 261 256 255 257 256 261 264 268 269 261 266 259 244 266 277
227 227 227 225 223 223 225 227 228 229 229 229 227 226 228 229 228 229 236 245 249 240 224 216 207 204 227 225 231 244 254 253 252 249 246 249 249 250 259 261 260 262 nan 260 264 259 nan nan nan 265 260 261 262 261 261 267 268 268 265 262 258 258 263
225 225 225 225 224 224 223 224 226 226 227 229 229 229 228 227 228 229 227 248 254 243 242 239 235 238 226 249 238 227 249 254 255 249 249 250 250 252 253 258 260 258 261 261 262 263 262 nan nan nan 270 266 264 264 263 266 268 266 268 266 264 255 259
nan 225 224 224 224 224 224 223 224 224 225 226 227 228 229 227 225 226 229 235 250 251 243 234 224 217 231 239 249 247 236 250 249 258 259 256 253 254 255 257 260 263 262 263 264 260 260 259 nan nan nan 271 269 265 262 260 260 268 280 272 262 262 253
nan nan 225 224 224 224 224 224 224 224 225 225 224 225 229 229 226 226 229 234 232 230 223 223 226 227 220 229 232 237 238 246 253 249 257 259 257 256 256 255 257 259 260 263 265 263 262 262 266 267 nan nan 274 274 265 260 nan 279 285 283 274 260 259
nan nan nan nan 224 223 223 224 225 225 225 225 224 224 226 228 227 228 229 231 234 230 222 220 231 236 232 217 220 224 226 232 240 244 244 254 259 258 258 257 255 254 258 262 267 265 270 272 269 264 268 269 275 279 277 273 271 nan nan 289 287 276 263
nan nan nan nan nan 224 223 223 225 225 226 226 226 226 226 227 227 229 231 232 233 236 234 228 231 232 234 237 231 220 215 222 229 234 235 236 250 256 256 256 255 256 259 264 262 263 266 267 273 275 272 271 271 276 282 281 nan nan nan 295 296 295 284
nan nan nan nan nan nan 223 224 224 226 226 228 228 227 228 229 229 229 231 234 237 238 240 235 233 229 226 228 237 242 228 216 218 227 232 234 238 249 253 254 255 256 257 258 261 261 265 271 271 270 270 272 273 272 275 281 285 nan nan nan 302 302 292
nan nan nan nan nan nan nan nan nan nan 225 227 228 229 228 230 231 229 232 233 237 240 241 241 239 236 231 231 237 245 252 242 226 220 224 227 221 223 233 242 251 254 249 253 259 262 262 264 266 266 268 271 271 270 275 281 287 293 nan nan nan 305 295
nan nan nan nan nan nan nan nan nan nan nan nan nan 228 229 231 231 230 232 233 236 238 242 242 242 239 239 236 240 242 244 246 249 243 231 237 238 232 226 224 235 247 246 244 250 254 257 258 259 264 267 267 268 267 267 268 284 288 293 297 298 301 286
nan nan nan nan nan nan nan nan nan nan nan nan nan nan nan 232 232 232 232 234 237 240 242 242 242 240 240 241 239 238 237 238 251 260 254 246 242 241 240 230 223 227 239 243 243 249 253 255 257 256 260 264 266 266 263 263 271 284 288 289 291 283 278
nan nan nan nan nan nan nan nan nan nan nan nan nan nan nan nan nan 234 234 235 237 239 242 242 242 241 242 243 242 240 240 242 248 253 257 259 261 260 259 257 250 239 232 237 242 245 246 250 253 256 259 262 265 267 266 265 270 281 285 287 287 284 276
nan nan nan nan nan nan nan nan nan nan nan nan nan nan nan nan nan nan nan nan 236 238 240 242 241 241 242 244 246 245 244 244 247 250 252 254 258 258 258 256 248 246 244 234 236 247 243 244 248 253 256 260 264 266 267 264 268 279 284 288 289 286 274
nan nan nan nan nan nan nan nan nan nan nan nan nan nan nan nan nan nan nan nan nan nan nan 238 240 240 241 243 244 246 244 240 245 250 248 246 247 252 250 245 244 247 245 239 232 232 233 240 243 247 248 250 255 260 267 264 261 270 283 285 287 292 278
nan nan nan nan nan nan nan nan nan nan nan nan nan nan nan nan nan nan nan nan nan nan nan nan nan 238 240 241 242 243 244 245 246 248 246 245 246 247 248 246 245 245 248 247 241 235 234 232 241 243 245 245 244 246 251 253 257 263 277 279 284 288 284
nan nan nan nan nan nan nan nan nan nan nan nan nan nan nan nan nan nan nan nan nan nan nan nan nan nan nan 238 239 239 241 244 248 249 249 248 248 246 249 251 245 251 260 260 258 260 254 244 240 239 241 244 246 248 248 244 244 249 268 278 282 285 291
nan nan nan nan nan nan nan nan nan nan nan nan nan nan nan nan nan nan nan nan nan nan nan nan nan nan nan nan nan 236 236 237 238 245 250 252 252 249 252 259 257 252 256 258 256 257 262 259 254 250 248 244 241 247 251 251 248 248 252 269 276 281 287
nan nan nan nan nan nan nan nan nan nan nan nan nan nan nan nan nan nan nan nan nan nan nan nan nan nan nan nan nan nan 234 233 236 240 242 244 248 252 257 259 261 262 265 262 253 247 247 251 254 255 253 252 250 249 249 253 253 262 268 267 276 277 280
nan nan nan nan nan nan nan nan nan nan nan nan nan nan nan nan nan nan nan nan nan nan nan nan nan nan nan nan nan nan nan nan 232 239 244 244 245 250 253 258 261 261 259 260 262 261 249 242 248 252 253 253 255 254 255 255 257 252 269 278 274 278 279
nan nan nan nan nan nan nan nan nan nan nan nan nan nan nan nan nan nan nan nan nan nan nan nan nan nan nan nan nan nan nan nan nan nan nan 239 243 246 251 251 254 258 262 260 257 255 252 246 243 246 249 250 253 255 253 253 249 251 252 262 268 272 281
nan nan nan nan nan nan nan nan nan nan nan nan nan nan nan nan nan nan nan nan nan nan nan nan nan nan nan nan nan nan nan nan nan nan nan nan nan 241 243 251 256 255 255 260 260 257 255 252 251 250 246 244 246 248 251 252 253 251 252 251 252 259 264
nan nan nan nan nan nan nan nan nan nan nan nan nan nan nan nan nan nan nan nan nan nan nan nan nan nan nan nan nan nan nan nan nan nan nan nan 239 241 243 245 247 249 252 256 257 256 255 255 254 257 256 252 248 248 249 249 248 247 246 247 248 250 253
nan nan nan nan nan nan nan nan nan nan nan nan nan nan nan nan nan nan nan nan nan nan nan nan nan nan nan nan nan nan nan nan nan nan nan nan nan nan 240 243 247 248 245 244 250 250 247 245 246 246 245 245 244 244 246 246 253 259 261 256 258 261 258
nan nan nan nan nan nan nan nan nan nan nan nan nan nan nan nan nan nan nan nan nan nan nan nan nan nan nan nan nan nan nan nan nan nan nan nan nan nan nan nan nan 246 244 244 242 237 nan 247 248 245 244 243 245 248 248 252 257 265 265 253 246 252 258
nan nan nan nan nan nan nan nan nan nan nan nan nan nan nan nan nan nan nan nan nan nan nan nan nan nan nan nan nan nan nan nan nan nan nan nan nan nan nan nan nan nan nan nan nan 249 nan nan nan nan nan nan 250 250 255 257 258 257 257 261 261 257 257
nan nan nan nan nan nan nan nan nan nan nan nan nan nan nan nan nan nan nan nan nan nan nan nan nan nan nan nan nan nan nan nan nan nan nan nan nan nan nan nan nan nan 256 nan nan nan nan 250 nan nan nan nan nan nan nan nan nan nan nan 255 257 256 251